CW0230 Weather Reports


Display with metric or nautical units.
time (UTC)temp
F
wind
direction
speed
MPH
gust
MPH
rain 1hr
in
rain 24hr
in
rain mn
in
humidity
%
barometer
mb
20260901092511 66 215 5.0 8.0 0.00 0.00 0.00 73 1021.8
20260901091511 66 214 3.0 7.0 0.00 0.00 0.00 74 1021.7
20260901091011 66 215 3.0 7.0 0.00 0.00 0.00 74 1021.7
20260901090511 65 186 3.0 6.0 0.00 0.00 0.00 75 1021.7
20260901085011 65 208 3.0 7.0 0.00 0.00 0.00 75 1021.6
20260901084511 65 228 3.0 7.0 0.00 0.00 0.00 76 1021.6
20260901084010 65 252 3.0 7.0 0.00 0.00 0.00 77 1021.6
20260901083511 64 219 3.0 7.0 0.00 0.00 0.00 79 1021.5
20260901082011 62 191 2.0 3.0 0.00 0.00 0.00 82 1021.5
20260901081511 61 172 2.0 3.0 0.00 0.00 0.00 83 1021.5
20260901080011 61 201 1.0 3.0 0.00 0.00 0.00 84 1021.4
20260901075511 60 201 1.0 3.0 0.00 0.00 0.00 85 1021.4
20260901074511 59 199 1.0 5.0 0.00 0.01 0.00 86 1021.4
20260901074011 59 179 2.0 5.0 0.00 0.01 0.00 86 1021.4
20260901072010 58 205 2.0 3.0 0.00 0.01 0.00 89 1021.3
20260901071511 58 208 1.0 3.0 0.00 0.01 0.00 89 1021.3
20260901071011 57 202 2.0 3.0 0.00 0.01 0.00 89 1021.3
20260901070510 57 192 2.0 3.0 0.00 0.01 0.00 90 1021.2
20260901070011 57 195 1.0 2.0 0.00 0.01 0.00 90 1021.2
20260901065512 56 195 0.0 2.0 0.00 0.01 0.00 91 1021.2
20260901063012 55 195 0.0 0.0 0.00 0.01 0.00 91 1021.1
20260901062510 55 195 0.0 0.0 0.00 0.01 0.00 91 1021.0
20260901060511 54 195 0.0 0.0 0.00 0.01 0.00 89 1020.8
20260901055011 54 195 0.0 0.0 0.00 0.01 0.00 88 1020.6
20260901053011 55 195 0.0 0.0 0.00 0.01 0.00 87 1020.5
20260901052511 55 195 0.0 0.0 0.00 0.01 0.00 87 1020.5
20260901051511 55 195 0.0 0.0 0.00 0.01 0.00 87 1020.5
20260901050511 56 195 0.0 0.0 0.00 0.01 0.00 87 1020.4
20260901050010 56 195 0.0 0.0 0.00 0.01 0.00 87 1020.3
20260901045511 56 195 0.0 0.0 0.00 0.01 0.00 87 1020.3
20260901045011 56 195 0.0 0.0 0.00 0.01 0.00 88 1020.3
20260901044511 56 195 0.0 0.0 0.00 0.01 0.00 88 1020.3
20260901044011 56 195 0.0 0.0 0.00 0.01 0.00 88 1020.3
20260901042011 56 195 0.0 2.0 0.00 0.01 0.00 88 1020.3
20260901041511 56 195 0.0 1.0 0.00 0.01 0.00 88 1020.3
20260901041011 56 195 0.0 1.0 0.00 0.01 0.00 88 1020.3
20260901035510 56 195 0.0 2.0 0.00 0.01 0.00 88 1020.2
20260901034011 56 213 1.0 3.0 0.00 0.01 0.00 89 1020.3
20260901033511 56 200 1.0 3.0 0.00 0.01 0.00 89 1020.3
20260901033011 56 199 2.0 3.0 0.00 0.01 0.00 89 1020.3
20260901031511 55 193 1.0 2.0 0.00 0.01 0.00 89 1020.3
20260901031011 55 193 0.0 0.0 0.00 0.01 0.00 89 1020.2
20260901025511 55 193 0.0 0.0 0.00 0.01 0.00 89 1020.3
20260901025011 55 193 0.0 0.0 0.00 0.01 0.00 89 1020.3
20260901024011 55 193 0.0 0.0 0.00 0.01 0.00 89 1020.4
20260901023011 55 193 0.0 1.0 0.00 0.01 0.00 89 1020.4
20260901020511 54 193 0.0 1.0 0.00 0.01 0.00 88 1020.4
20260901014511 55 193 1.0 2.0 0.00 0.01 0.00 86 1020.4
20260901014010 55 193 0.0 2.0 0.00 0.01 0.00 86 1020.4
20260901013511 55 193 1.0 2.0 0.00 0.01 0.00 86 1020.3
20260901013011 55 193 0.0 1.0 0.00 0.01 0.00 86 1020.4
20260901012511 55 193 0.0 2.0 0.00 0.01 0.00 86 1020.3
20260901011011 55 193 0.0 0.0 0.00 0.01 0.00 85 1020.1
20260901010510 55 193 0.0 2.0 0.00 0.01 0.00 85 1020.2
20260901005011 56 193 0.0 2.0 0.00 0.01 0.00 85 1020.3
20260901003011 56 193 0.0 2.0 0.00 0.01 0.00 85 1020.2
20260901001512 56 204 1.0 3.0 0.00 0.01 0.00 84 1020.2
20260901000011 56 198 1.0 3.0 0.00 0.01 0.00 84 1020.2
20260831235011 56 212 2.0 3.0 0.00 0.01 0.00 83 1020.3
20260831234511 56 216 1.0 3.0 0.00 0.01 0.00 83 1020.3
20260831234011 57 217 1.0 3.0 0.00 0.01 0.00 83 1020.3
20260831233011 57 226 2.0 3.0 0.00 0.01 0.00 83 1020.2
20260831232511 57 216 1.0 3.0 0.00 0.01 0.00 83 1020.2
20260831231511 57 213 1.0 3.0 0.00 0.01 0.00 83 1020.2
20260831225511 57 216 1.0 3.0 0.00 0.01 0.01 83 1020.1
20260831224511 57 225 1.0 3.0 0.00 0.01 0.01 83 1020.2
20260831224011 57 227 1.0 3.0 0.00 0.01 0.01 83 1020.1
20260831220011 58 225 1.0 3.0 0.00 0.01 0.01 80 1020.1
20260831214511 59 217 0.0 2.0 0.00 0.01 0.01 79 1020.1
20260831214011 59 217 1.0 2.0 0.00 0.01 0.01 79 1020.1
20260831213011 59 204 1.0 3.0 0.00 0.01 0.01 79 1020.1
20260831212011 60 218 2.0 6.0 0.00 0.01 0.01 78 1020.0
20260831211510 60 210 2.0 6.0 0.00 0.01 0.01 78 1019.9
20260831211011 60 209 1.0 5.0 0.00 0.01 0.01 78 1019.9
20260831210511 60 224 3.0 5.0 0.00 0.01 0.01 78 1019.8
20260831204511 60 279 1.0 5.0 0.00 0.01 0.01 77 1019.8
20260831204011 60 243 1.0 5.0 0.00 0.01 0.01 77 1019.8
20260831203511 60 238 2.0 5.0 0.00 0.01 0.01 77 1019.7
20260831203011 60 224 2.0 5.0 0.00 0.01 0.01 76 1019.7
20260831195010 61 277 1.0 3.0 0.00 0.01 0.01 74 1019.2
20260831194511 61 223 0.0 3.0 0.00 0.01 0.01 74 1019.2
20260831194011 62 223 1.0 3.0 0.00 0.01 0.01 73 1019.2
20260831193511 62 240 0.0 3.0 0.00 0.01 0.01 73 1019.2
20260831192510 62 284 2.0 3.0 0.00 0.01 0.01 72 1019.0
20260831192011 62 253 0.0 3.0 0.00 0.01 0.01 72 1018.8
20260831191511 62 307 1.0 3.0 0.00 0.01 0.01 71 1018.7
20260831191011 63 318 1.0 3.0 0.00 0.01 0.01 70 1018.7
20260831190511 63 311 1.0 3.0 0.00 0.01 0.01 70 1018.6
20260831185511 63 249 1.0 5.0 0.00 0.01 0.01 68 1018.6
20260831184011 64 298 2.0 6.0 0.00 0.01 0.01 66 1018.4
20260831183511 64 280 1.0 6.0 0.00 0.01 0.01 65 1018.3
20260831183011 65 295 2.0 7.0 0.00 0.01 0.01 64 1018.3
20260831182510 65 295 2.0 7.0 0.00 0.01 0.01 64 1018.2
20260831182011 65 239 2.0 7.0 0.00 0.01 0.01 64 1018.2
20260831181511 65 240 3.0 9.0 0.00 0.01 0.01 63 1018.1
20260831174511 66 267 3.0 8.0 0.00 0.02 0.01 62 1017.8
20260831174010 66 267 4.0 12.0 0.00 0.02 0.01 61 1017.8
20260831173511 67 283 6.0 12.0 0.00 0.02 0.01 60 1017.7
20260831172511 68 237 6.0 14.0 0.00 0.02 0.01 60 1017.6
20260831171511 68 232 5.0 13.0 0.00 0.02 0.01 59 1017.5
20260831170511 68 309 5.0 10.0 0.00 0.03 0.01 61 1017.5
20260831165511 68 248 5.0 12.0 0.00 0.03 0.01 62 1017.5
20260831164011 68 222 6.0 12.0 0.00 0.03 0.01 62 1017.3
20260831163511 68 265 3.0 7.0 0.00 0.03 0.01 64 1017.2
20260831161511 68 331 3.0 7.0 0.00 0.03 0.01 67 1017.1
20260831160511 68 343 4.0 9.0 0.00 0.03 0.01 67 1017.0
20260831155511 68 327 5.0 12.0 0.00 0.03 0.01 67 1017.0
20260831155011 68 320 4.0 12.0 0.00 0.03 0.01 67 1016.9
20260831154511 68 318 5.0 13.0 0.00 0.03 0.01 67 1016.9
20260831153511 69 270 5.0 12.0 0.00 0.03 0.01 67 1016.8
20260831153012 69 307 5.0 10.0 0.00 0.03 0.01 65 1016.8
20260831152012 70 232 6.0 12.0 0.00 0.03 0.01 63 1016.6
20260831151511 70 235 6.0 10.0 0.00 0.03 0.01 63 1016.6
20260831151011 70 246 5.0 12.0 0.00 0.03 0.01 63 1016.4
20260831150511 71 243 3.0 12.0 0.00 0.03 0.01 64 1016.4
20260831150011 71 236 6.0 10.0 0.00 0.03 0.01 63 1016.3
20260831145511 70 308 5.0 10.0 0.00 0.03 0.01 63 1016.4
20260831145011 70 232 5.0 12.0 0.00 0.03 0.01 65 1016.3
20260831144011 71 252 4.0 10.0 0.00 0.03 0.01 63 1016.3
20260831143511 71 240 6.0 12.0 0.00 0.03 0.01 62 1016.3
20260831143012 71 270 5.0 12.0 0.00 0.03 0.01 61 1016.2
20260831142011 71 227 3.0 14.0 0.00 0.03 0.01 61 1016.1
20260831140511 72 285 3.0 12.0 0.00 0.03 0.01 59 1016.1
20260831140011 72 219 6.0 14.0 0.00 0.03 0.01 58 1016.0
20260831135511 72 229 4.0 14.0 0.00 0.03 0.01 58 1015.8
20260831133011 74 209 5.0 10.0 0.00 0.03 0.01 62 1015.6
20260831132511 73 257 4.0 13.0 0.00 0.03 0.01 61 1015.5
20260831132011 73 266 6.0 13.0 0.00 0.03 0.01 61 1015.4
20260831130012 72 316 6.0 16.0 0.00 0.03 0.01 63 1015.3
20260831125511 72 327 7.0 16.0 0.00 0.03 0.01 64 1015.2
20260831124011 71 312 5.0 14.0 0.00 0.03 0.01 65 1015.1
20260831122011 72 297 4.0 12.0 0.00 0.03 0.01 65 1014.8
20260831121511 72 280 3.0 13.0 0.00 0.03 0.01 64 1014.7
20260831120012 70 263 5.0 12.0 0.00 0.03 0.01 67 1014.6
20260831115510 71 311 5.0 12.0 0.00 0.03 0.01 68 1014.6
20260831115011 71 274 6.0 17.0 0.00 0.03 0.01 67 1014.4
20260831114511 70 300 6.0 17.0 0.00 0.03 0.01 68 1014.4
20260831113511 70 325 5.0 14.0 0.00 0.03 0.01 69 1014.3
20260831113011 69 237 7.0 14.0 0.00 0.03 0.01 69 1014.2
20260831111510 70 308 3.0 14.0 0.00 0.03 0.01 70 1013.9
20260831105511 70 245 7.0 13.0 0.00 0.03 0.01 70 1013.7
20260831105011 70 241 5.0 12.0 0.00 0.03 0.01 70 1013.6
20260831104510 71 314 6.0 12.0 0.00 0.03 0.01 69 1013.6
20260831103510 70 307 5.0 17.0 0.00 0.03 0.01 70 1013.4
20260831102511 70 288 4.0 14.0 0.00 0.03 0.01 70 1013.3
20260831100511 69 303 3.0 10.0 0.00 0.03 0.01 72 1013.0
20260831100011 69 304 6.0 10.0 0.00 0.03 0.01 71 1013.0
20260831095510 70 320 6.0 10.0 0.00 0.03 0.01 70 1012.8
20260831095011 70 305 3.0 13.0 0.00 0.03 0.01 71 1012.7